Idaho Falls, ID

2:57 PM MDT on March 25, 2017 (GMT -0600)
Fanning

Weather History for KIDA - September, 2013

Change the Weather History Date:

Sunday, September 8, 2013

  Actual Average Record
Temperature  
Mean Temperature 67 °F 60 °F  
Max Temperature 81 °F 78 °F 91 °F (1979)
Min Temperature 53 °F 43 °F 29 °F (2001)
Degree Days  
Heating Degree Days 0 5  
Month to date heating degree days 0 34  
Since 1 July heating degree days 0 99  
Cooling Degree Days 2 1  
Month to date cooling degree days 33 8  
Year to date cooling degree days 493 260  
Growing Degree Days 18 (Base 50)    
Moisture  
Dew Point 51 °F    
Average Humidity 58    
Maximum Humidity 83    
Minimum Humidity 33    
Precipitation  
Precipitation 0.68 in 0.03 in 0.68 in (2013)
Month to date precipitation 0.97 0.22  
Year to date precipitation 3.67 7.20  
Sea Level Pressure  
Sea Level Pressure 29.94 in    
Wind  
Wind Speed 7 mph (South)    
Max Wind Speed 28 mph    
Max Gust Speed 35 mph    
Visibility 9 miles    
Events Rain , Thunderstorm    
T = Trace of Precipitation, MM = Missing Value Source: NWS Daily Summary

Daily Weather History Graph

Daily Weather History Graph

Search for Another Location

Airport or City:

Trip Planner

Search our weather history database for the weather conditions in past years. The results will help you decide how hot, cold, wet, or windy it might be!

Date:

Astronomy

Sep. 08, 2013 Rise Set
Actual Time 7:00 AM MDT 7:50 PM MDT
Civil Twilight 6:31 AM MDT 8:19 PM MDT
Nautical Twilight 5:56 AM MDT 8:53 PM MDT
Astronomical Twilight 5:20 AM MDT 9:29 PM MDT
Moon 10:29 AM MDT (9/8) 9:20 PM MDT (9/8)
Length of Visible Light 13h 48m
Length of Day
12h 50m
Waxing Crescent, 11% of the Moon is Illuminated
Sep 8
Waxing Crescent
Sep 12
First Quarter
Sep 19
Full
Sep 26
Last Quarter
Oct 4
New

Hourly Weather History & Observations

Time (MDT) Temp. Dew Point Humidity Pressure Visibility Wind Dir Wind Speed Gust Speed Precip Events Conditions
12:53 AM 60.1 °F 50.0 °F 69% 29.99 in 10.0 mi Calm Calm - N/A   Clear
1:53 AM 61.0 °F 50.0 °F 67% 29.98 in 10.0 mi Calm Calm - N/A   Clear
2:53 AM 61.0 °F 48.9 °F 64% 29.99 in 10.0 mi Calm Calm - N/A   Clear
3:53 AM 61.0 °F 51.1 °F 70% 29.98 in 10.0 mi SSW 3.5 mph - N/A   Clear
4:53 AM 59.0 °F 50.0 °F 72% 29.99 in 10.0 mi Calm Calm - N/A   Clear
5:53 AM 59.0 °F 48.9 °F 69% 29.99 in 10.0 mi Calm Calm - N/A   Clear
6:53 AM 55.0 °F 50.0 °F 83% 30.00 in 10.0 mi Calm Calm - N/A   Mostly Cloudy
7:53 AM 55.9 °F 48.9 °F 77% 30.01 in 10.0 mi North 3.5 mph - N/A   Clear
8:53 AM 63.0 °F 52.0 °F 67% 30.00 in 10.0 mi Calm Calm - N/A   Clear
9:53 AM 64.9 °F 52.0 °F 63% 30.00 in 10.0 mi NE 3.5 mph - N/A   Scattered Clouds
10:53 AM 68.0 °F 51.1 °F 55% 29.99 in 10.0 mi Calm Calm - N/A   Partly Cloudy
11:53 AM 72.0 °F 50.0 °F 46% 29.97 in 10.0 mi SSW 6.9 mph - N/A   Partly Cloudy
12:53 PM 75.0 °F 50.0 °F 41% 29.95 in 10.0 mi WSW 5.8 mph 18.4 mph N/A   Scattered Clouds
1:53 PM 79.0 °F 50.0 °F 36% 29.91 in 10.0 mi SW 9.2 mph - N/A   Scattered Clouds
2:53 PM 78.1 °F 51.1 °F 39% 29.89 in 10.0 mi WSW 12.7 mph - N/A   Scattered Clouds
3:53 PM 79.0 °F 50.0 °F 36% 29.86 in 10.0 mi SSW 12.7 mph - N/A   Scattered Clouds
4:53 PM 80.1 °F 48.9 °F 34% 29.83 in 10.0 mi SSW 12.7 mph 20.7 mph N/A   Scattered Clouds
5:53 PM 66.9 °F 46.9 °F 49% 29.87 in 8.0 mi NNW 26.5 mph 34.5 mph N/A   Mostly Cloudy
6:04 PM 64.4 °F 48.2 °F 56% 29.98 in 8.0 mi North 16.1 mph 33.4 mph N/A   Mostly Cloudy
6:44 PM 62.6 °F 51.8 °F 68% 29.97 in 8.0 mi North 13.8 mph - N/A Rain , Thunderstorm Light Thunderstorms and Rain
6:53 PM 63.0 °F 52.0 °F 67% 29.88 in 8.0 mi North 18.4 mph - 0.05 in Rain , Thunderstorm Light Thunderstorms and Rain
7:01 PM 64.4 °F 51.8 °F 64% 29.98 in 6.0 mi Calm Calm - 0.45 in Rain , Thunderstorm Light Thunderstorms and Rain
7:09 PM 60.8 °F 53.6 °F 77% 29.99 in 6.0 mi ESE 10.4 mph - 0.61 in Rain , Thunderstorm Light Thunderstorms and Rain
7:17 PM 60.8 °F 53.6 °F 77% 29.98 in 8.0 mi SE 11.5 mph - 0.63 in Rain , Thunderstorm Light Thunderstorms and Rain
7:32 PM 62.6 °F 53.6 °F 72% 29.97 in 8.0 mi East 9.2 mph - 0.63 in   Mostly Cloudy
7:53 PM 62.1 °F 55.0 °F 78% 29.89 in 10.0 mi SE 11.5 mph - 0.63 in   Mostly Cloudy
8:02 PM 62.6 °F 55.4 °F 77% 29.97 in 10.0 mi SE 12.7 mph - 0.00 in Rain , Thunderstorm Light Rain
8:11 PM 62.6 °F 53.6 °F 72% 29.97 in 10.0 mi SE 9.2 mph - 0.00 in Rain Light Rain
8:53 PM 62.1 °F 53.1 °F 72% 29.87 in 10.0 mi SE 8.1 mph - 0.00 in   Clear
9:53 PM 64.0 °F 51.1 °F 63% 29.86 in 10.0 mi South 6.9 mph - N/A   Clear
10:53 PM 66.0 °F 48.9 °F 54% 29.86 in 10.0 mi South 8.1 mph - N/A   Clear
11:53 PM 64.9 °F 48.9 °F 56% 29.85 in 10.0 mi South 9.2 mph - N/A   Clear